Location: Bonaustraße
(48.4603°N, 11.9280°E)
Time: 21:05:19
(UTC+02:00)

Tiangong - Visible Passes

Search period start: 26 September 2021 00:00
Search period end: 06 October 2021 00:00
Orbit: 382 x 385 km, 41.5° (Epoch: 26 September)

Date Brightness Start Highest point End Pass type
(mag) Time Alt. Az. Time Alt. Az. Time Alt. Az.
28 Sep 3.7 05:38:24 10° S 05:39:49 13° SSE 05:41:16 10° SE visible
29 Sep 3.1 06:13:49 10° SW 06:16:13 20° S 06:18:38 10° ESE visible
30 Sep 3.3 05:16:36 16° SSE 05:16:36 16° SSE 05:18:35 10° ESE visible
01 Oct 2.8 05:51:44 18° SSW 05:52:56 22° S 05:55:29 10° ESE visible
02 Oct 3.7 04:54:40 15° SE 04:54:40 15° SE 04:55:34 10° ESE visible
02 Oct 2.9 06:26:56 10° WSW 06:29:26 21° S 06:31:56 10° SE visible
03 Oct 2.7 05:29:48 23° S 05:29:48 23° S 05:32:13 10° SE visible
04 Oct 3.0 06:04:58 16° SW 06:06:05 18° SSW 06:08:22 10° SE visible
05 Oct 3.6 05:07:58 15° SE 05:07:58 15° SE 05:08:46 10° SE visible
05 Oct 3.5 06:41:34 10° SW 06:42:24 11° SSW 06:43:15 10° S visible
